Date,TemperatureHighF,TemperatureAvgF,TemperatureLowF,DewpointHighF,DewpointAvgF,DewpointLowF,HumidityHigh,HumidityAvg,HumidityLow,PressureMaxIn,PressureMinIn,WindSpeedMaxMPH,WindSpeedAvgMPH,GustSpeedMaxMPH,PrecipitationSumIn
2013-2-1,62,44,30,35,29,23,90,63,26,0.00,40.00,10,4,21,0.00
2013-2-2,65,40,24,29,23,13,83,56,14,0.00,40.00,4,1,9,0.00
2013-2-3,66,49,34,40,31,25,86,56,22,0.00,40.00,10,4,19,0.00
2013-2-4,63,46,30,40,33,27,89,67,30,0.00,40.00,5,1,11,0.00
2013-2-5,72,54,36,51,44,34,93,72,38,0.00,40.00,5,2,11,0.00
2013-2-6,74,61,54,56,52,50,91,76,45,0.00,40.00,5,1,11,0.00
2013-2-7,68,61,53,64,58,51,95,90,83,0.00,40.00,7,3,17,0.71
2013-2-8,65,54,46,64,50,44,95,86,72,0.00,40.00,9,5,17,0.44
2013-2-9,63,48,36,47,39,28,94,77,27,0.00,40.00,7,2,15,0.00
2013-2-10,73,61,35,57,50,33,93,70,52,0.00,40.00,7,4,16,0.00
2013-2-11,79,68,61,63,59,56,89,73,54,0.00,40.00,5,3,13,0.00
2013-2-12,63,61,57,61,59,56,96,92,88,0.00,40.00,5,2,11,0.14
2013-2-13,84,71,57,69,58,39,97,69,29,0.00,40.00,10,5,25,0.01
2013-2-14,57,50,43,48,43,40,91,78,65,0.00,40.00,7,3,19,0.01
2013-2-15,67,44,30,45,38,28,92,80,29,0.00,40.00,5,1,11,0.01
2013-2-16,56,44,38,44,36,14,93,76,35,0.00,40.00,10,4,22,0.00
2013-2-17,52,36,26,20,15,6,72,47,16,0.00,40.00,8,4,18,0.00
2013-2-18,58,38,22,35,25,14,86,66,19,0.00,40.00,7,2,14,0.00
2013-2-19,70,54,35,61,47,32,95,80,49,0.00,40.00,6,2,15,0.13
2013-2-20,63,47,32,48,36,22,95,71,21,0.00,40.00,5,2,10,0.11
2013-2-21,71,48,29,49,36,27,91,68,24,0.00,40.00,6,2,12,0.01
2013-2-22,76,65,52,65,60,49,96,85,68,0.00,40.00,4,2,9,0.19
2013-2-23,76,66,60,68,63,59,97,91,67,0.00,40.00,7,3,17,1.51
2013-2-24,75,62,56,60,54,36,96,80,24,0.00,40.00,5,3,12,0.86
2013-2-25,60,56,53,59,54,50,95,93,89,0.00,40.00,9,4,19,1.62
2013-2-26,78,65,55,68,56,43,98,76,34,0.00,40.00,7,4,20,0.78
2013-2-27,60,54,47,49,42,38,86,66,46,0.00,40.00,6,4,17,0.01
2013-2-28,65,53,41,46,38,30,93,63,28,0.00,40.00,12,5,25,0.00